Billings, MT

4:58 PM MDT on October 16, 2017 (GMT -0600)
Billings Logan International

Weather History for KBIL - July, 2011

Change the Weather History Date:

Saturday, July 9, 2011

  Actual Average Record
Temperature  
Mean Temperature 71 °F 72 °F  
Max Temperature 87 °F 86 °F 100 °F (2005)
Min Temperature 55 °F 58 °F 47 °F (1959)
Degree Days  
Heating Degree Days 0 1  
Month to date heating degree days 0 9  
Since 1 June heating degree days 119 105  
Since 1 July heating degree days 0 9  
Cooling Degree Days 6 7  
Month to date cooling degree days 80 59  
Year to date cooling degree days 132 161  
Since 1 June cooling degree days 132 144  
Growing Degree Days 22 (Base 50)    
Moisture  
Dew Point 38 °F    
Average Humidity 35    
Maximum Humidity 57    
Minimum Humidity 13    
Precipitation  
Precipitation 0.00 in 0.04 in 0.84 in (1992)
Month to date precipitation 0.02 0.43  
Year to date precipitation 14.47 8.41  
Snow  
Snow 0.00 in 0.00 in 0.00 in (2002)
Month to date snowfall 0.0 0.0  
Since 1 June snowfall 0.0 0.0  
Since 1 July snowfall 0.0 0.0  
Snow Depth 0.00 in    
Sea Level Pressure  
Sea Level Pressure 29.74 in    
Wind  
Wind Speed 7 mph (SW)    
Max Wind Speed 18 mph    
Max Gust Speed 24 mph    
Visibility 10 miles    
Events      
T = Trace of Precipitation, MM = Missing Value Source: NWS Daily Summary

Daily Weather History Graph

Daily Weather History Graph

Search for Another Location

Airport or City:

Trip Planner

Search our weather history database for the weather conditions in past years. The results will help you decide how hot, cold, wet, or windy it might be!

Date:

Astronomy

Jul. 09, 2011 Rise Set
Actual Time 5:33 AM MDT 9:04 PM MDT
Civil Twilight 4:55 AM MDT 9:42 PM MDT
Nautical Twilight 4:06 AM MDT 10:31 PM MDT
Astronomical Twilight 3:01 AM MDT 11:36 PM MDT
Moon 3:44 PM MDT (7/9) 12:46 AM MDT (7/9)
Length of Visible Light 16h 46m
Length of Day
15h 31m
Waxing Gibbous, 67% of the Moon is Illuminated
Jul 9
Waxing Gibbous
Jul 15
Full
Jul 22
Last Quarter
Jul 30
New
Aug 6
First Quarter

Hourly Weather History & Observations

Time (MDT) Temp. Dew Point Humidity Pressure Visibility Wind Dir Wind Speed Gust Speed Precip Events Conditions
1:53 AM 60.1 °F 45.0 °F 57% 29.73 in 10.0 mi NNW 9.2 mph - N/A   Clear
2:53 AM 64.0 °F 41.0 °F 43% 29.75 in 10.0 mi South 3.5 mph - N/A   Clear
3:53 AM 60.1 °F 37.0 °F 42% 29.77 in 10.0 mi Calm Calm - N/A   Clear
4:53 AM 59.0 °F 37.9 °F 46% 29.81 in 10.0 mi ENE 4.6 mph - N/A   Clear
5:53 AM 57.0 °F 42.1 °F 57% 29.81 in 10.0 mi South 5.8 mph - N/A   Clear
6:53 AM 60.1 °F 37.9 °F 44% 29.81 in 10.0 mi SSE 8.1 mph - N/A   Clear
7:53 AM 62.1 °F 37.0 °F 39% 29.80 in 10.0 mi South 3.5 mph - N/A   Clear
8:53 AM 66.0 °F 39.0 °F 37% 29.79 in 10.0 mi South 6.9 mph - N/A   Clear
9:53 AM 69.1 °F 41.0 °F 36% 29.78 in 10.0 mi SSW 9.2 mph - N/A   Clear
10:53 AM 73.0 °F 34.0 °F 24% 29.77 in 10.0 mi WSW 5.8 mph - N/A   Clear
11:53 AM 75.0 °F 36.0 °F 24% 29.76 in 10.0 mi Calm Calm - N/A   Clear
12:53 PM 79.0 °F 34.0 °F 20% 29.75 in 10.0 mi West 6.9 mph - N/A   Clear
1:53 PM 81.0 °F 35.1 °F 19% 29.74 in 10.0 mi WNW 8.1 mph - N/A   Clear
2:53 PM 84.0 °F 34.0 °F 17% 29.71 in 10.0 mi Variable 3.5 mph 16.1 mph N/A   Clear
3:53 PM 86.0 °F 30.0 °F 13% 29.70 in 10.0 mi West 12.7 mph 18.4 mph N/A   Clear
4:53 PM 86.0 °F 32.0 °F 14% 29.69 in 10.0 mi WNW 13.8 mph 20.7 mph N/A   Clear
5:53 PM 84.9 °F 33.1 °F 16% 29.68 in 10.0 mi WSW 5.8 mph - N/A   Clear
6:53 PM 84.9 °F 34.0 °F 16% 29.68 in 10.0 mi WSW 6.9 mph - N/A   Clear
7:53 PM 82.0 °F 39.0 °F 22% 29.69 in 10.0 mi NNE 6.9 mph - N/A   Clear
8:53 PM 77.0 °F 42.1 °F 29% 29.70 in 10.0 mi East 8.1 mph - N/A   Clear
9:53 PM 75.0 °F 45.0 °F 34% 29.72 in 10.0 mi East 10.4 mph - N/A   Partly Cloudy
10:53 PM 69.1 °F 46.9 °F 45% 29.73 in 10.0 mi North 9.2 mph - N/A   Partly Cloudy
11:53 PM 66.9 °F 37.9 °F 34% 29.73 in 10.0 mi NNE 9.2 mph - N/A   Partly Cloudy